When you browse on this site, cookies collect data to enhance your experience and personalize the content and advertising you see.
Visit our Privacy Policy to learn more. By continuing to use the site, you agree to this use of cookies and data.
  • In Latvia
  • List of Countries
  • For 7 days
  • Water Temperature
  • Weather Map
  • Weather Widgets
  • user-avatar
    Login

    Hourly Weather Grekov

    Today, 22 August, Thursday

    Time Temperature Precipitation Wind Pressure Humidity
    00:00 +28°C° 0 mm 6 mps 748 mmHg 35%
    01:00 +27°C° 0 mm 5 mps 748 mmHg 38%
    02:00 +27°C° 0 mm 5 mps 748 mmHg 41%
    03:00 +26°C° 0 mm 4 mps 748 mmHg 45%
    04:00 +26°C° 0 mm 4 mps 748 mmHg 47%
    05:00 +25°C° 0 mm 4 mps 748 mmHg 49%
    06:00 +25°C° 0 mm 4 mps 748 mmHg 51%
    07:00 +27°C° 0 mm 4 mps 748 mmHg 46%
    08:00 +29°C° 0 mm 4 mps 749 mmHg 41%
    09:00 +33°C° 0 mm 5 mps 749 mmHg 36%
    10:00 +35°C° 0 mm 5 mps 749 mmHg 31%
    11:00 +37°C° 0 mm 5 mps 748 mmHg 26%
    12:00 +40°C° 0 mm 5 mps 748 mmHg 20%
    13:00 +40°C° 0 mm 5 mps 748 mmHg 20%
    14:00 +40°C° 0 mm 5 mps 748 mmHg 19%
    15:00 +41°C° 0 mm 6 mps 748 mmHg 18%
    16:00 +40°C° 0 mm 5 mps 748 mmHg 20%
    17:00 +39°C° 0 mm 5 mps 747 mmHg 23%
    18:00 +37°C° 0 mm 5 mps 747 mmHg 25%
    19:00 +35°C° 0 mm 5 mps 747 mmHg 29%
    20:00 +33°C° 0 mm 6 mps 748 mmHg 33%
    21:00 +30°C° 0 mm 6 mps 748 mmHg 37%
    22:00 +30°C° 0 mm 6 mps 748 mmHg 37%
    23:00 +29°C° 0 mm 6 mps 748 mmHg 37%

    Tomorrow, 23 August, Friday

    Time Temperature Precipitation Wind Pressure Humidity
    00:00 +29°C° 0 mm 5 mps 748 mmHg 37%
    01:00 +28°C° 0 mm 5 mps 748 mmHg 39%
    02:00 +28°C° 0 mm 5 mps 748 mmHg 40%
    03:00 +27°C° 0 mm 5 mps 749 mmHg 41%
    04:00 +27°C° 0 mm 4 mps 748 mmHg 43%
    05:00 +26°C° 0 mm 4 mps 748 mmHg 45%
    06:00 +26°C° 0 mm 4 mps 748 mmHg 47%
    07:00 +27°C° 0 mm 5 mps 749 mmHg 43%
    08:00 +29°C° 0 mm 5 mps 749 mmHg 39%
    09:00 +32°C° 0 mm 5 mps 749 mmHg 35%
    10:00 +34°C° 0 mm 6 mps 749 mmHg 31%
    11:00 +36°C° 0 mm 6 mps 749 mmHg 26%
    12:00 +39°C° 0 mm 6 mps 749 mmHg 22%
    13:00 +39°C° 0 mm 5 mps 749 mmHg 21%
    14:00 +40°C° 0 mm 5 mps 748 mmHg 19%
    15:00 +40°C° 0 mm 5 mps 748 mmHg 17%
    16:00 +39°C° 0 mm 5 mps 748 mmHg 20%
    17:00 +37°C° 0 mm 5 mps 748 mmHg 22%
    18:00 +36°C° 0 mm 5 mps 748 mmHg 25%
    19:00 +34°C° 0 mm 5 mps 748 mmHg 28%
    20:00 +33°C° 0 mm 6 mps 748 mmHg 31%
    21:00 +30°C° 0 mm 6 mps 749 mmHg 34%
    22:00 +30°C° 0 mm 6 mps 748 mmHg 35%
    23:00 +29°C° 0 mm 6 mps 748 mmHg 35%

    Day after tomorrow, 24 August, Saturday

    Time Temperature Precipitation Wind Pressure Humidity
    00:00 +29°C° 0 mm 6 mps 748 mmHg 36%
    01:00 +28°C° 0 mm 6 mps 748 mmHg 37%
    02:00 +28°C° 0 mm 6 mps 748 mmHg 38%
    03:00 +27°C° 0 mm 5 mps 748 mmHg 39%
    04:00 +27°C° 0 mm 5 mps 748 mmHg 41%
    05:00 +27°C° 0 mm 5 mps 748 mmHg 43%
    06:00 +26°C° 0 mm 5 mps 748 mmHg 45%
    07:00 +28°C° 0 mm 5 mps 748 mmHg 42%
    08:00 +29°C° 0 mm 5 mps 748 mmHg 39%
    09:00 +30°C° 0 mm 5 mps 749 mmHg 35%
    10:00 +33°C° 0 mm 5 mps 748 mmHg 31%
    11:00 +36°C° 0 mm 5 mps 748 mmHg 26%
    12:00 +39°C° 0 mm 5 mps 748 mmHg 21%
    13:00 +39°C° 0 mm 5 mps 748 mmHg 20%
    14:00 +40°C° 0 mm 5 mps 748 mmHg 18%
    15:00 +41°C° 0 mm 6 mps 747 mmHg 17%
    16:00 +40°C° 0 mm 5 mps 747 mmHg 19%
    17:00 +39°C° 0 mm 5 mps 747 mmHg 20%
    18:00 +37°C° 0 mm 5 mps 747 mmHg 22%
    19:00 +35°C° 0 mm 5 mps 747 mmHg 24%
    20:00 +34°C° 0 mm 5 mps 747 mmHg 26%
    21:00 +33°C° 0 mm 5 mps 747 mmHg 28%
    22:00 +32°C° 0 mm 5 mps 747 mmHg 30%
    23:00 +32°C° 0 mm 5 mps 747 mmHg 32%

    25 August, Sunday

    Time Temperature Precipitation Wind Pressure Humidity
    00:00 +32°C° 0 mm 6 mps 747 mmHg 33%
    01:00 +30°C° 0 mm 5 mps 747 mmHg 35%
    02:00 +29°C° 0 mm 4 mps 747 mmHg 37%
    03:00 +28°C° 0 mm 3 mps 747 mmHg 39%
    04:00 +27°C° 0 mm 3 mps 747 mmHg 40%
    05:00 +27°C° 0 mm 3 mps 747 mmHg 41%
    06:00 +26°C° 0 mm 3 mps 747 mmHg 42%
    07:00 +27°C° 0 mm 4 mps 747 mmHg 41%
    08:00 +28°C° 0 mm 4 mps 747 mmHg 41%
    09:00 +29°C° 0 mm 4 mps 748 mmHg 40%
    10:00 +30°C° 0 mm 4 mps 748 mmHg 41%
    11:00 +30°C° 0 mm 4 mps 748 mmHg 43%
    12:00 +32°C° 0 mm 4 mps 747 mmHg 44%
    13:00 +30°C° 0 mm 5 mps 748 mmHg 45%
    14:00 +30°C° 0 mm 5 mps 748 mmHg 46%
    15:00 +29°C° 0 mm 5 mps 748 mmHg 47%
    16:00 +28°C° 0.6 mm 5 mps 748 mmHg 51%
    17:00 +27°C° 0.6 mm 6 mps 748 mmHg 56%
    18:00 +24°C° 0.6 mm 7 mps 748 mmHg 60%
    19:00 +24°C° 0.5 mm 6 mps 748 mmHg 61%
    20:00 +23°C° 0.5 mm 5 mps 748 mmHg 63%
    21:00 +22°C° 0.5 mm 4 mps 748 mmHg 64%
    22:00 +23°C° 0.2 mm 5 mps 748 mmHg 63%
    23:00 +23°C° 0.2 mm 5 mps 748 mmHg 62%

    26 August, Monday

    Time Temperature Precipitation Wind Pressure Humidity
    00:00 +23°C° 0.2 mm 6 mps 748 mmHg 61%
    01:00 +23°C° 0 mm 7 mps 748 mmHg 62%
    02:00 +22°C° 0 mm 8 mps 748 mmHg 62%
    03:00 +22°C° 0 mm 9 mps 748 mmHg 63%
    04:00 +22°C° 0 mm 8 mps 749 mmHg 64%
    05:00 +22°C° 0 mm 8 mps 749 mmHg 64%
    06:00 +22°C° 0 mm 7 mps 749 mmHg 65%
    07:00 +23°C° 0 mm 7 mps 750 mmHg 62%
    08:00 +23°C° 0 mm 7 mps 750 mmHg 59%
    09:00 +24°C° 0 mm 7 mps 751 mmHg 56%
    10:00 +26°C° 0 mm 8 mps 751 mmHg 52%
    11:00 +28°C° 0 mm 8 mps 751 mmHg 47%
    12:00 +29°C° 0 mm 8 mps 751 mmHg 43%
    13:00 +29°C° 0 mm 8 mps 752 mmHg 43%
    14:00 +29°C° 0 mm 7 mps 752 mmHg 44%
    15:00 +29°C° 0 mm 7 mps 752 mmHg 44%
    16:00 +28°C° 0 mm 7 mps 752 mmHg 45%
    17:00 +28°C° 0 mm 6 mps 752 mmHg 46%
    18:00 +28°C° 0 mm 5 mps 752 mmHg 48%
    19:00 +26°C° 0 mm 5 mps 752 mmHg 50%
    20:00 +25°C° 0 mm 5 mps 753 mmHg 51%
    21:00 +23°C° 0 mm 5 mps 753 mmHg 53%
    22:00 +23°C° 0 mm 5 mps 753 mmHg 51%
    23:00 +22°C° 0 mm 5 mps 753 mmHg 48%

    27 August, Tuesday

    Time Temperature Precipitation Wind Pressure Humidity
    00:00 +22°C° 0 mm 6 mps 754 mmHg 46%
    01:00 +21°C° 0 mm 6 mps 754 mmHg 46%
    02:00 +20°C° 0 mm 5 mps 754 mmHg 46%
    03:00 +20°C° 0 mm 5 mps 754 mmHg 46%
    04:00 +19°C° 0 mm 5 mps 754 mmHg 48%
    05:00 +19°C° 0 mm 5 mps 754 mmHg 49%
    06:00 +17°C° 0 mm 5 mps 755 mmHg 51%
    07:00 +20°C° 0 mm 6 mps 755 mmHg 47%
    08:00 +21°C° 0 mm 6 mps 755 mmHg 43%
    09:00 +23°C° 0 mm 6 mps 756 mmHg 40%
    10:00 +24°C° 0 mm 6 mps 756 mmHg 36%
    11:00 +26°C° 0 mm 6 mps 756 mmHg 33%
    12:00 +27°C° 0 mm 7 mps 756 mmHg 29%
    13:00 +28°C° 0 mm 7 mps 755 mmHg 27%
    14:00 +28°C° 0 mm 6 mps 755 mmHg 25%
    15:00 +28°C° 0 mm 6 mps 755 mmHg 23%
    16:00 +28°C° 0 mm 6 mps 755 mmHg 23%
    17:00 +27°C° 0 mm 5 mps 755 mmHg 23%
    18:00 +26°C° 0 mm 5 mps 755 mmHg 23%
    19:00 +23°C° 0 mm 5 mps 755 mmHg 25%
    20:00 +22°C° 0 mm 5 mps 755 mmHg 27%
    21:00 +20°C° 0 mm 4 mps 755 mmHg 29%
    22:00 +19°C° 0 mm 5 mps 755 mmHg 30%
    23:00 +19°C° 0 mm 5 mps 755 mmHg 30%
    Show more